Location: Stull Observatory
(42.2506°N, 77.7903°W)
Time: 12:52:24
(UTC-04:00)

ISS - All Passes

Search period start: 31 March 2015 00:00
Search period end: 10 April 2015 00:00
Orbit: 396 x 405 km, 51.6° (Epoch: 31 March)

Date Brightness Start Highest point End Pass type
(mag) Time Alt. Az. Time Alt. Az. Time Alt. Az.
31 Mar - 01:27:03 10° NW 01:29:17 17° N 01:31:32 10° NE night (unlit)
31 Mar - 03:04:14 10° NW 03:06:35 18° NNE 03:08:56 10° ENE night (unlit)
31 Mar - 04:40:18 10° NW 04:43:30 57° NNE 04:46:41 10° ESE visible
31 Mar - 06:17:23 10° W 06:19:38 17° SW 06:21:48 10° S visible
31 Mar - 21:21:27 10° SSE 21:22:46 12° SE 21:24:11 10° ESE night (unlit)
31 Mar - 22:55:31 10° WSW 22:58:47 80° NW 23:02:03 10° NE night (unlit)
01 Apr - 00:33:03 10° WNW 00:35:35 20° NNW 00:38:06 10° NE night (unlit)
01 Apr - 02:10:43 10° NW 02:12:51 16° N 02:14:58 10° NE night (unlit)
01 Apr - 03:46:56 10° NW 03:49:56 34° NNE 03:52:57 10° E visible
01 Apr - 05:23:22 10° WNW 05:26:19 33° SW 05:29:15 10° SSE visible
01 Apr - 22:02:09 10° SW 22:05:20 52° SE 22:08:31 10° ENE night (unlit)
01 Apr - 23:39:02 10° W 23:41:53 27° NNW 23:44:43 10° NE night (unlit)
02 Apr - 01:17:00 10° NW 01:19:04 16° N 01:21:07 10° NE night (unlit)
02 Apr - 02:53:33 10° NW 02:56:17 24° NNE 02:59:00 10° ENE night (unlit)
02 Apr - 04:29:41 10° WNW 04:32:55 66° SW 04:36:07 10° SE visible
02 Apr - 21:09:08 10° SSW 21:11:55 26° SE 21:14:44 10° ENE visible
02 Apr - 22:45:07 10° W 22:48:13 40° NNW 22:51:19 10° NE night (unlit)
03 Apr - 00:23:03 10° NW 00:25:15 17° N 00:27:26 10° NE night (unlit)
03 Apr - 02:00:07 10° NW 02:02:32 19° NNE 02:04:57 10° ENE night (unlit)
03 Apr - 03:36:10 10° NW 03:39:23 65° NNE 03:42:36 10° ESE night (unlit)
03 Apr - 05:13:30 10° W 05:15:28 15° SW 05:17:22 10° SSW night (unlit)
03 Apr - 20:16:47 10° SSE 20:18:32 14° SE 20:20:23 10° E visible
03 Apr - 21:51:21 10° WSW 21:54:35 70° NW 21:57:51 10° NE visible
03 Apr - 23:28:57 10° WNW 23:31:26 19° NNW 23:33:54 10° NE night (unlit)
04 Apr - 01:06:32 10° NW 01:08:42 16° N 01:10:52 10° NE night (unlit)
04 Apr - 02:42:41 10° NW 02:45:46 38° NNE 02:48:49 10° E night (unlit)
04 Apr - 04:19:14 10° WNW 04:22:05 28° SW 04:24:54 10° SSE night (unlit)
04 Apr - 20:57:49 10° SW 21:01:02 60° SE 21:04:15 10° ENE visible
04 Apr - 22:34:50 10° WNW 22:37:38 25° NNW 22:40:24 10° NE visible
05 Apr - 00:12:46 10° NW 00:14:50 16° N 00:16:53 10° NE night (unlit)
05 Apr - 01:49:14 10° NW 01:52:01 26° NNE 01:54:48 10° E night (unlit)
05 Apr - 03:25:24 10° WNW 03:28:36 57° SW 03:31:46 10° SE night (unlit)
05 Apr - 20:04:36 10° SSW 20:07:31 30° SE 20:10:26 10° ENE visible
05 Apr - 21:40:48 10° W 21:43:51 36° NNW 21:46:55 10° NE visible
05 Apr - 23:18:46 10° NW 23:20:55 16° N 23:23:04 10° NE visible
06 Apr - 00:55:42 10° NW 00:58:11 20° NNE 01:00:40 10° ENE night (unlit)
06 Apr - 02:31:45 10° NW 02:35:00 74° NE 02:38:13 10° ESE night (unlit)
06 Apr - 04:09:23 10° W 04:11:01 13° SW 04:12:34 10° SSW night (unlit)
06 Apr - 19:11:58 10° S 19:14:01 16° SE 19:16:09 10° E daylight
06 Apr - 20:46:53 10° WSW 20:50:08 62° NNW 20:53:22 10° NE visible
06 Apr - 22:24:35 10° WNW 22:27:00 19° NNW 22:29:24 10° NE visible
07 Apr - 00:02:04 10° NW 00:04:16 17° N 00:06:29 10° NE night (unlit)
07 Apr - 01:38:10 10° NW 01:41:17 41° NNE 01:44:22 10° E night (unlit)
07 Apr - 03:14:48 10° WNW 03:17:33 25° SW 03:20:14 10° SSE night (unlit)
07 Apr - 19:53:12 10° SW 19:56:26 70° SE 19:59:42 10° ENE daylight
07 Apr - 21:30:22 10° WNW 21:33:05 24° NNW 21:35:48 10° NE visible
07 Apr - 23:08:13 10° NW 23:10:18 16° N 23:12:22 10° NE visible
08 Apr - 00:44:36 10° NW 00:47:28 27° NNE 00:50:19 10° E night (unlit)
08 Apr - 02:20:49 10° WNW 02:23:58 49° SW 02:27:06 10° SE night (unlit)
08 Apr - 18:59:49 10° SSW 19:02:48 34° SE 19:05:50 10° ENE daylight
08 Apr - 20:36:11 10° W 20:39:12 33° NNW 20:42:13 10° NE visible
08 Apr - 22:14:09 10° NW 22:16:17 16° N 22:18:25 10° NE visible
08 Apr - 23:50:59 10° NW 23:53:32 21° NNE 23:56:05 10° ENE visible
09 Apr - 01:27:03 10° NW 01:30:18 84° NE 01:33:32 10° ESE night (unlit)
09 Apr - 03:05:05 10° WSW 03:06:16 11° SW 03:07:21 10° SSW night (unlit)
09 Apr - 18:06:56 10° S 18:09:13 18° SE 18:11:34 10° E daylight
09 Apr - 19:42:09 10° WSW 19:45:21 55° NNW 19:48:34 10° NE daylight
09 Apr - 21:19:54 10° WNW 21:22:16 18° N 21:24:37 10° NE visible
09 Apr - 22:57:16 10° NW 22:59:32 17° N 23:01:48 10° NE visible
